Weather History for KRWL - December, 2011

Change the Weather History Date:

Wednesday, December 7, 2011

  Actual Average Record
Temperature  
Mean Temperature 21 °F 22 °F  
Max Temperature 30 °F 31 °F 50 °F (1965)
Min Temperature 12 °F 13 °F -26 °F (2005)
Degree Days  
Heating Degree Days 44 43  
Month to date heating degree days 383 297  
Since 1 July heating degree days 2253 2403  
Cooling Degree Days 0 0  
Month to date cooling degree days 0 0  
Year to date cooling degree days 242 186  
Moisture  
Dew Point 10 °F    
Average Humidity 58    
Maximum Humidity 65    
Minimum Humidity 50    
Precipitation  
Precipitation 0.00 in 0.01 in 0.17 in (1974)
Month to date precipitation 0.11 0.09  
Year to date precipitation 9.77 8.91  
Sea Level Pressure  
Sea Level Pressure 30.29 in    
Wind  
Wind Speed 11 mph (WSW)    
Max Wind Speed 21 mph    
Max Gust Speed 30 mph    
Visibility 10 miles    
Events      
T = Trace of Precipitation, MM = Missing Value Source: NWS Daily Summary

Daily Weather History Graph

Daily Weather History Graph

Search for Another Location

Airport or City:

Trip Planner

Search our weather history database for the weather conditions in past years. The results will help you decide how hot, cold, wet, or windy it might be!

Date:

Astronomy

Dec. 07, 2011 Rise Set
Actual Time 7:22 AM MST 4:37 PM MST
Civil Twilight 6:51 AM MST 5:09 PM MST
Nautical Twilight 6:16 AM MST 5:44 PM MST
Astronomical Twilight 5:42 AM MST 6:17 PM MST
Moon 2:41 PM MST (12/7) 4:39 AM MST (12/7)
Length of Visible Light 10h 18m
Length of Day
9h 15m
Waxing Gibbous, 93% of the Moon is Illuminated
Dec 7
Waxing Gibbous
Dec 10
Full
Dec 17
Last Quarter
Dec 24
New
Dec 31
First Quarter

Hourly Weather History & Observations

Time (MST) Temp. Windchill Dew Point Humidity Pressure Visibility Wind Dir Wind Speed Gust Speed Precip Events Conditions
12:53 AM 17.1 °F 10.0 °F 3.9 °F 56% 30.41 in 10.0 mi WSW 4.6 mph - N/A   Clear
1:53 AM 17.1 °F 10.0 °F 5.0 °F 59% 30.38 in 10.0 mi South 4.6 mph - N/A   Clear
2:53 AM 15.1 °F - 5.0 °F 64% 30.40 in 10.0 mi Calm Calm - N/A   Clear
3:53 AM 17.1 °F 3.0 °F 6.1 °F 62% 30.38 in 10.0 mi WSW 13.8 mph - N/A   Clear
6:53 AM 18.0 °F 9.8 °F 5.0 °F 57% 30.39 in 10.0 mi SSE 5.8 mph 17.3 mph N/A   Clear
7:53 AM 18.0 °F 6.9 °F 6.1 °F 60% 30.41 in 10.0 mi WSW 9.2 mph - N/A   Clear
8:53 AM 19.9 °F 11.1 °F 7.0 °F 57% 30.41 in 10.0 mi SW 6.9 mph - N/A   Clear
9:53 AM 24.1 °F 15.2 °F 10.0 °F 55% 30.39 in 10.0 mi West 8.1 mph - N/A   Clear
10:53 AM 26.1 °F 16.2 °F 12.0 °F 55% 30.36 in 10.0 mi West 10.4 mph - N/A   Clear
11:53 AM 28.0 °F 18.1 °F 14.0 °F 56% 30.30 in 10.0 mi WSW 11.5 mph - N/A   Clear
12:53 PM 28.9 °F 19.2 °F 14.0 °F 54% 30.25 in 10.0 mi SW 11.5 mph 20.7 mph N/A   Clear
1:53 PM 30.0 °F 19.5 °F 15.1 °F 54% 30.21 in 10.0 mi WSW 13.8 mph - N/A   Clear
2:53 PM 28.9 °F 17.3 °F 15.1 °F 56% 30.23 in 10.0 mi WSW 16.1 mph - N/A   Clear
3:53 PM 28.0 °F 20.8 °F 12.9 °F 53% 30.21 in 10.0 mi West 6.9 mph - N/A   Clear
4:53 PM 24.1 °F 12.5 °F 10.9 °F 57% 30.23 in 10.0 mi West 12.7 mph - N/A   Clear
5:53 PM 21.9 °F 10.4 °F 10.0 °F 60% 30.24 in 10.0 mi WSW 11.5 mph - N/A   Clear
6:53 PM 23.0 °F 8.3 °F 10.9 °F 60% 30.22 in 10.0 mi WSW 19.6 mph - N/A   Clear
7:53 PM 23.0 °F 9.2 °F 10.9 °F 60% 30.21 in 10.0 mi WSW 17.3 mph - N/A   Clear
8:53 PM 23.0 °F 8.3 °F 12.0 °F 63% 30.19 in 10.0 mi WSW 19.6 mph - N/A   Mostly Cloudy
9:53 PM 24.1 °F 11.5 °F 12.9 °F 62% 30.17 in 10.0 mi WSW 15.0 mph - N/A   Overcast
10:53 PM 24.1 °F 14.4 °F 12.9 °F 62% 30.15 in 10.0 mi SW 9.2 mph - N/A   Overcast
11:53 PM 24.1 °F 15.2 °F 12.0 °F 60% 30.13 in 10.0 mi SSW 8.1 mph - N/A   Overcast